Showing default

ASBM-1, 60422

Orbit data source: Space-Track

ASBM-1, 60422 is a Norwegian payload satellite in HEO that was launched on Mon, 12 Aug 2024 UTC via an FALCON 9 launch vehicle from the Air Force Western Test Range (AFWTR). Payload-class satellites include a variety of spacecraft equipped with specific instruments for various scientific and technological missions. These include communications satellites like Starlink; space stations such as the ISS; scientific satellites like the Hubble; Earth observation satellites from companies like Planet Labs, Umbra, and HawkEye 360; GPS; miniature CubeSats for education and research; and military/defense satellites.

Loading next visibility...
Identifier
60422, 2024-143A
Orbit
HEO
Country
Flag of NONO / NOR
Related business
Manufacturer
NGIS SSG
Mission
Operational Commercial Communications
Bus & Motor
GEOSTAR-3, BT-4?
Mass
3,695 kg wet, 2,035 kg dry
Launch date (UTC)
2024-08-12 (1 year ago)
Launch vehicle
FALCON 9
Launch site
Air Force Western Test Range (AFWTR)
Object type
Payload
Rocket body
Debris
Shape & HBR
Box + 2 Pan, 13.5 m
Radar Cross Section
35.796 m², Large (>1 m²)

Expand to show TLE details & history
Last TLE update: 2 weeks ago

TLE from 2 weeks ago
0 ASBM-1
1 60422U 24143A   25243.65418871 -.00000049  00000-0  00000-0 0  9998
2 60422  62.6373  56.6611 5481566 268.7204  31.2902  1.50427878  7266
Epoch: 2025-08-31T15:42Z
TLE epoch observation values (Epoch: 2025-08-31T15:42:01.904Z)
Latitude
-0.0001°
Longitude
-158.94285°
Altitude
16,379.77 km
Speed
4.758 km/s
True Right ascension
03h 46m 32s
True Declination
0° 00' 00"
Sunlit
Object was in daylight at epoch
Visualization orbit readout
Latitude
Unknown
Longitude
Unknown
Altitude
Unknown
Speed
Unknown
Apparent Right ascension
Unknown
Apparent Declination
Unknown
Sunlit
N/A
Visualization observer readout
Local Sidereal Time
11:52:09
Azimuth
Unknown
Elevation
Unknown
Doppler factor
Unknown
Orbital elements
Apogee altitude
43,432.909 km
Perigee altitude
8,159.664 km
Semi-major axis
32,174.423 km
Eccentricity
0.54816
Inclination
62.6373°
RAAN
56.6611°
Arg. of periapsis
268.7204°
True anomaly
91.34795°
Mean anomaly
31.2902°
Eccentric anomaly
57.89409°
Mean motion
0.37608 °/min
Orbital period
957.25 mins
BSTAR
0
Loading maneuver chart data...
Computing Atmospheric mass density...
Loading historical data...
Loading historical data...
Loading historical data...
Loading historical data...
Loading historical data...
Loading historical data...
Loading historical data...
Other satellites on launch #143 in the year 2024 (2024-08-12 UTC)

Documentation

Showing up to 5 results
|